Location: Saint-Br�vin-les-Pins
(47.2500°N, 2.1670°W)
Time: 16:08:32
(UTC+02:00)

Envisat - Visible Passes

Search period start: 22 July 2024 00:00
Search period end: 01 August 2024 00:00
Orbit: 762 x 764 km, 98.3° (Epoch: 22 July)

Date Brightness Start Highest point End Pass type
(mag) Time Alt. Az. Time Alt. Az. Time Alt. Az.
22 Jul 5.4 04:10:10 10° NE 04:13:25 17° E 04:16:38 10° SE visible
22 Jul 3.1 05:47:50 10° N 05:52:53 70° WNW 05:57:55 10° SSW visible
23 Jul 3.6 05:10:28 10° NNE 05:15:29 57° E 05:20:28 10° S visible
24 Jul 4.7 04:33:34 10° NE 04:37:52 27° E 04:42:08 10° SSE visible
25 Jul 5.5 03:57:48 10° ENE 04:00:02 13° E 04:02:16 10° ESE visible
25 Jul 3.0 05:34:36 10° NNE 05:39:43 89° W 05:44:47 10° SSW visible
26 Jul 4.0 04:57:22 10° NNE 05:02:14 43° E 05:07:02 10° S visible
27 Jul 5.1 04:20:42 10° NE 04:24:32 21° E 04:28:20 10° SE visible
27 Jul 3.2 05:58:53 10° N 06:03:51 56° WNW 06:08:47 10° SSW visible
28 Jul 3.2 05:21:24 10° NNE 05:26:30 71° ESE 05:31:32 10° S visible
29 Jul 4.4 04:44:19 10° NNE 04:48:56 34° E 04:53:30 10° SSE visible
30 Jul 5.4 04:08:01 10° NE 04:11:10 16° E 04:14:18 10° SE visible
30 Jul 3.0 05:45:36 10° N 05:50:40 72° WNW 05:55:43 10° SSW visible
31 Jul 3.6 05:08:14 10° NNE 05:13:15 55° E 05:18:12 10° S visible
